Location: ???????
(55.4362°N, 38.1183°E)
Time: 03:09:08
(UTC+00:00)

Meteor 2-1 Rocket - Pass Details

Date: 17 June 2021
Orbit: 828 x 908 km, 81.3° (Epoch: 26 July)

Event Time Altitude Azimuth Distance (km) Brightness Sun altitude
Rises 20:47:02 0° 344° (NNW) 3,386 9.5 -10.7°
Reaches altitude 10° 20:49:26 10° 343° (NNW) 2,448 8.2 -10.7°
Maximum altitude 20:54:57 75° 260° (W) 866 4.3 -10.8°
Enters shadow 20:59:41 14° 176° (S) 2,150 5.6 -10.9°
